Погода в Брагине

Беларусь     51°46′51″N   30°16′27″E
темп.,
°C
ветер,
м/с
пор.,
м/с
влажн.,
%
обл.,
%
осадки,
мм/ч
давл.,
гПа
погр.,
м
15 августа, пн
пн1500:00+19всв41184100 0.0 1014276
03:00+19всв4108375 0.0 1013230
06:00+18всв4108396 0.0 1013202
09:00+23в61062100 0.1 1013398
12:00+30в793326 0.1 10131226
15:00+33в892699 0.1 10112251
18:00+29вюв693598 0.0 1012819
21:00+26всв61444100 0.0 1011685
16 августа, вт
вт1600:00+25в51246100 0.0 1011408
03:00+26всв81641100 0.0 1009573
06:00+24всв71544100 0.0 1009586
09:00+23вюв71457100 1.1 1010587
12:00+20в51083100 1.8 1011335
15:00+22в478093 1.9 1012250
18:00+27всв6948100 0.1 10111581
21:00+24всв51143100 0.1 1011375
17 августа, ср
ср1700:00+20св3757100 0.0 1011112
03:00+19в355933 0.0 101075
06:00+17в336152 0.0 101036
09:00+23всв454585 0.0 1010391
12:00+28в5735100 0.0 10101394
15:00+30в453632 0.0 10092161
18:00+30в443876 0.0 10092037
21:00+24всв475714 0.0 1010102
18 августа, чт
чт1800:00+19в498146 0.2 1011177
03:00+18всв46835 0.2 101297
06:00+17св487562 0.0 1012137
09:00+25всв694630 0.0 1012490
12:00+30всв692914 0.0 10121489
15:00+32всв892722 0.0 10112416
18:00+31всв78312 0.0 10112498
21:00+25св612454 0.0 1012364
19 августа, пт
пт1900:00+20св411615 0.0 1013192
03:00+18св49661 0.0 1012170
06:00+17св49725 0.0 1013167
09:00+23всв58535 0.0 1013509
12:00+29всв68405 0.0 10131524
15:00+31в673443 0.0 10122378
18:00+29всв573972 0.0 1012884
21:00+24св495519 0.0 1013199